GEFSNGP_850_meantemp_000.txt.gz
Temperature
17 17 19 19 18 15 14 14 13 13 12 13 12 12 12 12 12 12 12 12 12 12 13 13 13 12 13 12 12 12 13 13 13 12 12 13 12 12 12 12 12 12 13 12
18 19 19 18 18 17 16 16 15 15 13 13 12 12 11 11 12 13 12 12 12 12 12 12 12 12 12 11 11 11 12 12 12 12 12 13 12 12 12 12 12 12 13 12
15 18 17 15 17 18 17 17 16 14 13 12 12 11 12 12 12 12 12 12 12 12 11 11 11 11 11 11 11 11 11 12 12 12 12 12 12 12 12 12 12 12 12 12
15 16 14 17 17 18 17 16 15 15 13 12 13 14 14 13 12 12 12 12 11 11 11 11 11 11 11 11 11 11 11 11 11 11 11 11 12 12 12 12 11 12 12 11
14 14 16 17 18 17 16 15 15 14 14 14 14 13 13 13 13 12 12 11 11 11 11 10 10 10 11 11 10 11 11 11 11 11 11 11 11 11 11 11 11 11 11 11
14 14 14 17 18 18 17 14 14 14 14 15 12 10 12 14 13 13 12 12 11 11 10 10 10 10 10 10 10 11 11 11 10 10 10 11 11 11 11 11 11 11 11 11
15 14 15 17 19 19 15 15 15 16 16 15 12 13 15 15 14 13 12 11 11 10 10 10 10 10 10 10 10 10 10 9 9 9 10 10 10 10 10 10 11 10 11 11
15 14 13 18 18 16 16 17 17 17 17 17 16 16 15 15 14 12 12 12 11 11 10 10 10 10 10 10 10 10 9 9 9 9 10 10 10 10 10 10 10 10 10 10
16 15 17 19 19 20 20 19 18 17 17 17 17 15 15 15 13 13 12 12 12 11 11 10 10 10 10 10 9 9 9 9 9 9 9 10 10 10 10 10 10 10 10 10
15 16 18 20 20 19 20 20 19 18 18 17 17 16 15 14 13 13 12 12 12 12 11 11 10 10 10 9 9 9 8 8 8 9 9 9 10 9 10 10 9 9 9 9
14 15 17 19 20 20 20 19 19 18 18 17 17 16 15 14 13 13 13 12 12 11 11 11 10 10 9 9 9 9 9 8 8 8 9 9 9 9 9 9 9 9 9 9
15 16 15 17 19 20 20 20 19 18 18 17 17 16 15 14 14 13 12 12 12 12 11 10 10 10 9 9 9 9 9 9 8 8 8 8 8 9 9 8 9 9 9 8
17 18 19 19 19 19 19 20 19 19 18 17 17 16 16 15 14 13 13 13 12 12 11 11 10 10 9 9 9 9 9 9 9 8 9 9 9 9 9 9 9 9 9 9
18 18 18 19 19 19 20 20 19 19 18 18 17 16 16 15 14 14 13 13 12 12 11 11 10 10 10 10 10 9 9 9 9 9 9 9 9 10 9 9 9 9 9 9
18 18 19 19 19 19 19 19 19 18 18 17 17 17 16 15 15 14 14 13 12 12 11 11 10 10 10 10 10 10 9 9 9 9 9 10 10 10 10 9 9 9 9 9
18 19 19 19 19 19 19 19 18 18 18 18 17 17 16 16 15 15 14 13 12 12 12 11 11 11 11 10 10 10 10 10 10 10 10 10 10 10 10 10 10 10 10 9
15 17 18 19 19 19 19 19 18 18 18 18 18 17 17 16 15 15 14 14 13 13 12 12 11 11 11 11 11 11 10 10 10 10 10 10 11 10 10 10 10 10 10 10
16 16 17 18 18 18 18 18 18 17 17 18 18 17 17 16 16 15 15 14 13 13 12 12 12 12 11 11 11 11 11 11 11 11 10 10 11 10 10 10 10 10 10 9
16 15 13 14 16 16 16 17 17 17 18 18 18 17 17 17 16 16 15 14 14 13 13 13 12 12 12 12 11 11 11 11 11 11 11 11 10 10 10 10 10 10 10 9
14 13 13 13 16 15 14 14 15 17 16 16 16 16 16 15 16 16 15 15 14 15 15 14 13 13 12 12 12 12 12 11 11 11 11 11 11 10 11 11 11 11 10 10
13 13 13 12 13 13 12 11 11 14 15 15 15 15 15 15 15 15 15 15 15 15 14 14 14 13 13 12 12 12 12 12 11 11 11 11 11 11 11 11 11 11 10 10
12 12 12 11 11 11 11 10 11 13 14 14 14 14 14 14 14 14 14 15 16 15 15 14 14 14 13 13 12 12 12 12 12 11 11 11 11 11 11 11 11 11 11 10
12 12 12 11 11 11 11 11 12 13 13 13 13 13 13 13 13 13 13 14 14 15 14 14 14 14 14 13 13 12 12 12 11 11 11 11 11 11 11 11 11 11 11 10
11 12 11 11 11 11 11 12 12 12 13 12 12 12 12 12 12 13 13 14 14 14 13 13 14 14 14 14 13 13 12 12 12 11 11 11 11 11 11 11 11 11 11 11
9 9 10 10 10 11 11 11 12 11 11 12 12 11 11 12 12 12 13 13 13 13 13 13 14 13 13 13 13 12 12 12 12 12 12 11 11 11 11 11 11 11 11 11
8 8 8 8 8 9 9 10 10 11 11 11 11 11 11 11 11 11 12 12 12 13 13 12 13 13 12 12 13 12 12 12 12 12 12 12 12 12 12 12 11 11 11 10
8 8 7 7 7 7 8 8 9 10 10 10 10 10 10 10 10 11 11 12 12 12 12 12 12 12 13 13 12 13 13 13 13 13 13 12 12 12 12 12 12 12 10 10

GEFSNGP_850_meantemp_006.txt.gz
Temperature
14 15 16 16 15 13 11 12 12 12 12 14 13 12 13 14 14 13 12 12 12 12 12 12 12 12 12 12 12 12 13 13 13 13 13 13 13 12 12 12 13 13 12 11
15 16 15 15 16 15 13 13 12 12 13 13 13 13 13 13 13 13 12 12 11 11 11 11 11 11 11 11 12 12 12 12 12 12 12 12 12 12 12 12 12 12 12 11
13 14 16 15 15 15 14 13 13 13 14 13 12 11 13 15 15 14 13 12 12 11 11 11 11 11 11 11 11 12 12 12 12 12 12 12 12 12 12 12 12 12 12 11
12 14 14 14 15 15 15 14 13 13 13 12 13 15 15 15 15 15 14 13 12 11 11 11 11 11 11 11 11 12 11 11 12 12 12 12 12 11 11 11 12 12 11 11
10 12 13 14 16 16 15 14 15 14 14 14 14 13 15 17 16 16 15 13 12 11 11 11 10 10 11 11 11 11 11 11 11 11 11 11 11 11 11 11 11 11 11 11
11 12 12 14 17 17 16 14 15 14 13 14 12 12 14 18 17 16 15 13 12 11 11 10 10 10 10 11 11 11 11 11 11 11 11 11 11 11 11 11 11 11 11 11
11 11 12 14 16 16 15 15 17 17 16 15 12 16 17 17 16 16 14 13 12 11 11 10 10 10 10 10 10 11 11 10 10 10 10 10 10 10 10 10 10 10 10 10
11 11 12 15 16 14 15 18 18 18 19 18 18 19 18 17 16 15 14 13 12 11 11 10 10 10 10 10 10 10 10 10 10 10 10 10 10 10 10 10 10 10 10 10
11 12 14 17 17 17 17 17 18 18 18 18 18 19 18 17 16 15 14 13 12 11 11 10 10 10 10 10 10 10 10 9 9 9 9 10 10 10 10 10 10 9 9 9
10 11 13 16 17 17 17 17 17 18 18 17 17 18 18 17 16 16 14 13 12 11 11 11 11 11 10 10 10 10 9 9 9 9 9 9 10 10 9 9 9 9 9 9
10 12 13 15 16 17 17 17 17 17 18 18 18 18 18 17 17 16 15 13 12 12 11 11 11 11 10 10 9 9 9 8 8 8 9 9 9 9 9 9 9 9 9 9
12 14 13 14 15 16 16 16 17 17 18 18 18 18 18 17 17 16 15 14 13 12 11 11 11 11 10 10 9 9 9 8 8 8 8 9 9 9 9 9 9 9 9 8
13 14 13 14 15 15 15 15 16 16 17 17 18 18 18 18 17 16 15 14 13 13 12 11 11 11 10 10 9 9 9 9 8 8 8 8 9 9 9 9 9 9 9 9
12 12 12 13 13 13 14 14 14 15 16 17 18 18 18 18 17 17 16 15 14 13 13 12 11 11 10 10 9 9 9 9 9 8 8 8 8 8 9 9 9 9 9 9
11 11 11 11 12 12 13 13 13 13 14 16 17 17 17 17 17 17 16 15 14 14 13 12 11 11 10 10 9 9 9 9 9 8 8 8 8 8 8 9 9 9 9 9
10 11 11 11 11 11 11 11 11 11 11 13 15 16 16 16 17 17 17 16 15 14 14 13 12 11 10 10 10 9 9 9 9 8 8 8 8 9 9 9 9 9 9 9
9 10 10 10 10 10 10 10 10 10 10 10 12 13 14 15 15 16 16 16 15 15 14 14 12 11 11 10 10 9 9 9 9 8 9 9 9 9 9 9 9 9 10 10
9 10 10 10 10 10 10 9 9 9 9 9 9 11 12 13 14 15 16 16 15 15 14 14 13 12 11 11 10 10 9 9 9 9 9 9 9 10 10 10 10 10 10 10
9 9 9 9 9 10 10 10 9 9 9 8 9 9 10 11 12 14 15 15 15 15 15 14 14 12 11 11 11 10 10 9 9 9 9 10 10 10 10 10 10 10 10 10
9 9 9 8 9 9 9 9 9 10 9 9 9 9 9 9 10 11 12 12 14 15 15 15 14 13 12 11 11 11 10 10 10 10 10 10 10 10 10 10 10 10 10 10
7 7 7 7 7 7 8 8 8 9 9 9 9 9 9 9 9 10 10 11 12 13 13 13 14 14 13 12 11 11 11 11 10 10 10 10 10 10 10 10 10 10 10 10
6 5 6 6 6 6 6 7 7 8 8 9 9 9 9 9 9 9 10 11 12 12 12 12 12 13 13 13 12 11 11 11 11 11 11 10 10 10 10 10 10 10 10 10
5 5 4 4 4 4 5 6 6 7 7 8 8 8 9 9 9 9 9 11 11 12 11 11 12 12 13 13 12 12 12 11 11 11 11 11 11 11 11 11 11 11 11 11
4 4 4 3 3 3 4 5 5 6 6 7 7 8 8 9 9 10 10 10 11 11 11 11 11 11 12 12 11 11 11 11 11 11 11 11 11 11 11 11 11 11 11 11
4 4 4 4 3 3 3 4 5 5 5 5 6 7 8 8 9 9 10 10 11 11 11 11 11 11 11 11 11 10 11 11 12 12 12 12 12 12 12 11 11 11 11 11
5 4 4 4 3 3 3 3 4 4 4 4 5 6 7 8 9 9 10 10 11 11 11 11 11 11 11 10 10 10 10 11 11 12 12 12 12 12 12 12 12 11 11 11
5 4 4 3 3 3 3 3 3 4 4 4 4 5 6 7 8 9 9 10 10 10 10 10 11 11 11 11 10 10 10 11 11 11 12 12 12 12 12 12 12 12 11 11

GEFSNGP_850_meantemp_012.txt.gz
Temperature
23 24 23 23 23 23 23 22 21 22 22 23 23 23 22 21 20 19 19 18 17 16 15 14 13 13 12 12 12 12 12 12 11 11 11 11 10 11 11 11 11 11 11 11
22 23 23 23 23 23 23 23 22 22 22 24 23 23 22 21 20 19 19 18 17 16 15 14 13 13 12 12 12 12 12 11 11 11 11 11 11 11 11 11 11 11 11 11
21 23 22 22 23 23 23 23 23 22 23 23 23 22 21 20 20 19 19 18 17 16 15 14 13 13 12 12 12 12 12 12 12 11 11 11 11 11 11 11 11 11 11 11
21 21 20 23 23 23 22 22 22 22 23 22 22 21 20 19 18 19 18 18 17 16 15 14 13 13 12 12 12 12 12 12 12 12 11 11 11 11 11 11 11 11 11 11
21 21 21 23 22 21 20 21 22 22 21 21 21 20 21 21 19 18 18 17 16 15 15 14 13 13 12 12 12 12 12 12 12 12 11 11 11 11 11 11 11 11 11 11
20 19 19 22 21 21 21 20 22 21 20 20 20 20 21 20 19 18 17 16 16 15 14 13 13 12 12 12 12 12 11 11 12 12 11 11 11 11 11 11 11 11 11 11
20 19 20 22 21 20 18 19 19 18 18 18 19 19 19 19 19 17 16 16 16 15 14 13 12 12 11 11 11 11 11 11 11 11 11 11 11 11 11 11 11 11 11 11
19 18 19 20 19 18 17 17 17 17 17 18 18 18 18 19 18 17 15 15 15 15 14 13 12 11 11 11 11 11 11 11 11 11 11 11 11 11 11 10 10 10 10 10
18 18 19 18 17 16 15 15 15 16 16 17 17 18 18 18 18 17 16 15 15 15 14 12 11 11 11 11 11 11 11 11 11 11 11 11 10 10 10 10 10 10 10 10
17 18 17 16 14 13 13 13 14 14 15 16 16 17 17 17 18 17 16 14 14 14 14 12 12 11 11 11 10 10 11 10 10 10 10 10 10 10 10 10 11 10 10 10
15 15 13 12 11 11 11 12 13 13 13 14 14 15 15 16 16 16 16 14 14 14 14 13 12 11 11 11 10 10 10 10 10 10 11 10 10 10 10 10 11 10 10 10
10 8 9 9 8 9 10 10 11 11 12 13 13 13 13 13 14 15 15 14 14 14 14 13 12 11 11 11 10 10 10 10 11 11 10 10 10 9 10 10 10 10 9 9
6 6 7 6 7 7 8 9 10 10 11 12 12 12 11 11 12 12 13 14 13 13 14 13 12 12 11 10 10 10 10 10 11 11 10 10 10 10 9 9 9 9 9 9
6 6 6 6 7 8 8 9 9 10 10 11 11 11 11 11 10 11 11 12 13 13 13 13 12 12 11 11 10 10 10 10 10 10 10 10 10 10 10 10 9 9 9 9
6 7 7 7 8 8 9 9 9 10 10 10 10 10 10 10 10 9 10 11 11 12 12 13 12 12 11 11 10 10 10 10 10 10 10 10 10 10 10 10 10 10 9 9
7 7 8 8 9 9 9 9 9 9 9 9 9 10 10 9 9 9 9 9 10 11 12 12 12 12 12 11 11 10 10 10 10 10 10 10 10 10 10 10 10 10 10 9
7 8 8 9 8 8 8 8 8 8 8 8 8 8 9 9 9 9 9 9 9 9 11 11 12 12 12 11 11 11 11 10 9 9 10 10 10 10 10 10 10 10 10 10
8 8 8 8 8 8 8 8 8 7 7 7 7 7 8 8 9 8 8 8 8 9 9 10 11 11 11 11 11 11 11 10 9 10 10 10 10 10 10 10 10 11 11 10
8 8 8 8 8 8 8 7 7 7 7 7 7 7 7 7 8 8 8 8 8 8 8 9 10 11 11 11 11 11 11 11 10 10 10 10 10 10 11 11 11 11 11 11
8 8 8 8 8 7 7 7 7 6 6 6 6 6 6 7 8 8 8 7 7 7 7 8 9 10 10 11 11 11 11 11 11 10 10 10 10 10 11 11 11 11 11 11
7 7 7 7 7 7 7 7 6 6 6 6 5 6 6 7 7 7 7 7 8 7 7 7 8 9 10 10 10 11 12 11 11 11 10 11 10 11 11 11 11 11 11 11
6 6 6 6 6 6 6 6 6 6 6 5 5 6 6 6 7 7 7 7 7 7 7 7 8 8 9 10 10 11 12 12 12 11 11 11 11 11 11 11 11 11 11 11
6 5 5 6 6 6 6 6 6 6 5 5 5 5 5 5 6 6 7 8 8 7 7 7 7 8 9 9 10 11 12 12 12 12 11 11 11 11 11 11 11 11 11 11
5 5 5 5 5 5 5 5 5 4 4 4 4 4 4 5 5 7 7 7 7 7 7 7 7 8 8 9 10 11 12 12 12 12 12 12 12 11 12 12 11 11 11 11
5 4 4 4 4 4 4 3 3 3 3 3 3 3 4 4 5 6 7 7 7 7 7 7 8 8 8 8 9 11 12 12 13 12 12 12 12 12 12 12 12 12 12 12
4 4 4 4 3 3 2 2 2 2 2 2 2 3 3 4 5 5 6 6 7 7 7 8 8 8 8 9 9 10 11 12 12 12 12 12 12 12 12 12 12 12 12 12
4 4 4 3 3 2 1 1 1 2 3 3 3 3 3 4 4 5 6 6 7 7 8 8 9 9 9 10 10 10 11 11 11 11 12 12 12 12 12 12 12 12 12 12

GEFSNGP_850_meantemp_018.txt.gz
Temperature
25 26 27 27 27 27 26 26 25 25 25 26 25 25 25 24 24 23 23 23 22 22 21 19 18 17 16 15 15 14 13 13 13 12 12 12 12 11 11 11 11 11 11 11
24 26 27 27 27 27 27 26 26 25 25 25 25 24 23 23 22 22 22 22 22 21 20 19 18 17 16 16 15 14 13 13 13 12 12 12 12 11 11 11 11 11 11 11
23 25 26 25 26 26 26 26 24 23 23 24 23 22 22 21 22 22 22 22 21 21 20 19 18 17 16 15 15 14 13 13 13 13 12 12 12 11 11 11 11 11 11 12
23 24 23 25 27 26 25 24 23 22 22 22 21 21 21 21 21 20 20 20 20 20 20 19 18 17 16 15 15 14 14 13 13 13 12 12 12 11 11 11 11 11 12 12
22 23 24 25 24 24 23 22 20 20 20 20 19 19 20 20 19 19 19 19 19 19 19 19 18 17 17 16 15 14 14 13 13 13 12 12 12 12 11 11 11 11 12 12
22 21 21 21 22 22 22 21 17 17 17 17 17 17 17 17 17 17 17 18 19 19 19 19 18 17 16 16 15 14 14 13 13 13 13 12 12 12 12 11 11 11 12 12
21 21 22 17 19 20 19 15 14 14 13 13 14 14 14 15 15 15 15 16 17 17 18 18 17 17 16 15 15 14 14 13 13 13 13 12 12 12 12 11 11 11 11 11
22 20 19 14 15 13 11 11 10 10 10 10 10 11 11 12 12 13 14 14 14 15 16 16 16 16 15 15 14 14 14 13 13 13 12 12 12 12 12 11 11 11 11 11
20 16 11 10 10 9 9 9 8 8 8 8 9 9 9 10 10 11 12 12 12 13 13 14 15 15 15 15 14 14 13 13 13 13 12 12 12 12 11 11 11 11 11 11
18 14 12 10 10 9 9 8 8 8 9 9 8 9 9 9 9 10 10 11 11 11 12 12 13 14 14 14 14 13 13 13 13 12 12 12 12 12 11 11 11 11 11 11
15 11 11 11 9 9 9 9 9 9 10 10 10 10 9 9 9 9 9 10 10 11 11 11 12 13 13 13 13 13 13 12 12 12 12 12 12 12 11 11 11 12 12 11
10 9 9 9 8 8 8 9 9 10 10 11 11 11 10 10 10 9 9 9 9 10 10 10 11 11 12 13 13 13 12 12 12 12 12 12 12 11 11 11 12 12 12 11
8 8 8 8 9 9 10 10 11 11 11 11 11 11 10 10 10 9 9 9 9 9 9 10 10 11 11 12 12 12 12 12 12 12 12 12 12 11 11 11 11 11 12 11
9 9 9 10 10 11 11 11 11 11 11 11 11 11 10 10 10 10 9 9 9 9 9 9 10 10 11 11 11 12 12 12 12 13 13 12 12 12 11 11 11 11 11 11
10 10 11 11 11 11 11 11 11 11 11 11 11 10 10 10 10 9 9 9 9 9 9 9 9 9 10 10 10 11 12 12 12 13 13 13 13 12 12 11 11 10 10 10
11 11 11 12 11 11 11 11 11 11 11 10 10 10 9 9 9 9 9 9 9 9 9 9 9 9 9 9 10 10 11 12 12 13 13 13 13 13 12 12 11 11 10 10
11 12 11 11 11 11 10 10 10 10 9 9 9 9 9 9 9 9 9 8 8 8 8 9 9 8 9 9 9 9 10 12 12 13 13 13 13 13 13 12 12 11 10 10
11 11 10 10 10 10 9 9 9 8 8 8 8 8 8 8 8 8 8 8 8 8 8 8 9 8 8 9 9 9 10 11 12 12 13 13 13 13 13 12 12 11 10 10
10 10 10 10 9 9 9 8 8 7 7 7 6 6 6 6 6 7 7 7 7 7 8 8 9 9 8 8 8 9 10 11 12 12 12 12 12 13 13 12 12 11 11 10
10 10 9 9 9 8 8 7 7 6 6 5 5 4 4 4 5 5 5 6 6 7 7 8 8 8 8 8 8 9 10 10 11 12 12 12 12 13 13 12 12 12 11 11
9 9 9 9 8 8 8 7 6 5 4 4 3 3 3 3 3 3 4 5 6 6 7 7 8 8 8 8 8 8 9 10 11 11 12 12 12 13 13 12 12 12 12 11
9 9 9 8 8 8 7 6 5 4 3 3 2 2 2 2 3 3 3 4 5 6 6 7 8 8 8 8 8 8 9 10 11 11 12 12 13 13 13 13 12 12 12 12
9 9 9 8 8 8 7 6 5 3 3 2 2 2 2 2 3 3 3 4 4 5 6 7 7 7 8 7 8 8 9 10 10 11 12 12 13 13 13 13 13 13 13 13
9 9 9 8 8 7 6 5 4 3 2 2 2 2 3 3 3 3 3 4 4 5 6 7 7 7 7 7 8 8 9 10 10 11 12 12 13 13 13 13 13 13 13 13
9 9 9 8 8 7 6 5 4 3 2 3 3 3 4 4 4 4 4 4 5 5 6 7 7 7 7 7 8 8 9 10 10 11 12 13 13 13 13 13 13 13 13 13
9 9 8 8 7 6 5 4 3 3 3 3 3 4 4 5 5 5 5 5 5 6 6 7 7 8 8 8 8 8 9 10 10 11 12 13 13 14 14 13 13 13 13 13
8 8 8 7 6 6 4 3 3 3 3 3 4 4 5 5 5 5 5 6 6 7 7 8 8 8 8 8 8 8 9 10 10 11 12 13 14 14 14 14 14 14 14 13

GEFSNGP_850_meantemp_024.txt.gz
Temperature
19 20 21 21 21 22 21 19 18 17 15 15 15 15 15 14 14 14 14 14 14 15 15 16 17 17 18 18 18 18 17 16 15 14 13 13 13 12 11 11 11 11 11 11
20 21 21 21 20 20 18 18 17 15 14 14 14 14 13 12 12 12 12 12 13 13 14 14 15 15 16 17 18 17 17 16 15 14 13 13 12 12 11 11 11 11 11 11
17 19 19 18 18 16 14 14 14 13 12 12 12 12 11 11 11 11 11 11 12 12 12 13 13 14 15 16 16 17 17 16 15 14 13 13 12 12 11 11 11 11 11 11
16 18 19 18 17 16 13 11 12 11 11 11 11 12 12 12 11 11 10 11 11 11 11 11 12 13 14 15 15 16 16 16 15 14 14 13 12 12 11 11 11 11 11 11
16 17 18 17 15 15 14 11 10 10 10 10 10 11 12 12 10 10 10 10 10 10 10 10 11 11 12 13 14 14 15 15 15 14 14 13 12 12 12 11 11 11 11 11
16 17 16 14 13 14 15 11 9 9 9 9 9 9 10 11 10 10 10 10 10 10 10 10 10 10 10 11 12 12 13 14 14 14 14 13 13 12 12 11 11 11 11 11
16 16 14 11 12 14 13 11 9 9 9 8 8 8 9 10 10 10 10 10 10 10 10 10 10 9 9 10 10 10 11 12 13 14 14 13 13 12 12 11 11 11 11 11
14 15 13 10 10 10 9 10 9 9 9 8 8 9 9 10 10 10 10 10 10 10 10 10 9 9 9 9 9 9 10 11 12 13 13 13 13 12 12 11 11 11 11 11
11 11 9 9 10 10 9 9 9 9 9 9 9 9 9 10 10 10 10 10 10 10 10 10 9 9 9 9 9 9 9 10 11 12 13 13 13 12 11 11 11 11 11 11
10 10 10 10 10 10 10 9 9 9 9 9 9 9 9 10 10 10 10 10 10 10 9 9 9 9 9 8 8 8 8 9 10 11 12 12 13 12 12 11 11 11 11 11
9 9 9 10 11 11 10 10 10 10 10 10 9 9 10 9 10 9 9 9 9 9 9 9 9 9 9 8 8 8 8 8 9 10 12 12 12 12 12 12 12 12 12 12
8 9 9 10 11 11 10 10 10 10 10 10 9 9 9 9 9 9 9 9 8 9 9 9 9 9 8 8 8 7 7 8 8 10 11 12 12 12 12 12 12 12 12 12
10 11 10 10 10 10 10 10 10 9 9 9 9 9 9 8 8 8 8 8 8 8 8 8 8 8 8 8 8 7 7 7 8 9 10 11 12 12 11 11 11 11 11 11
11 10 10 10 10 10 10 9 9 9 9 9 8 8 8 8 7 7 7 7 7 7 7 7 7 8 8 8 8 7 7 7 8 8 9 11 11 12 12 11 11 10 11 11
10 10 10 10 10 9 9 9 9 9 8 8 8 8 7 7 6 6 6 6 5 5 6 6 6 7 7 7 7 7 7 7 7 8 9 10 11 11 12 12 11 11 11 11
10 10 10 9 9 9 9 9 9 8 8 8 7 7 6 6 6 5 5 5 4 4 5 5 5 6 7 7 7 7 7 7 7 8 8 9 10 11 11 11 11 11 11 11
10 9 9 9 9 9 9 9 8 8 8 7 7 6 6 5 5 4 4 4 4 4 4 4 4 5 6 6 7 7 7 7 7 8 8 9 10 11 11 11 11 11 11 11
9 9 9 9 9 9 9 9 8 8 7 7 6 6 5 5 4 4 3 3 3 3 3 4 4 5 5 6 6 7 7 7 7 8 8 9 10 11 11 11 12 12 12 11
9 9 9 9 9 9 8 8 8 7 7 6 6 5 4 4 3 3 3 3 3 3 3 3 4 4 5 6 6 7 7 7 7 8 8 9 10 10 11 11 12 12 12 11
9 9 9 9 9 8 8 8 7 7 6 5 5 4 4 3 3 3 3 3 3 3 3 3 3 4 5 5 6 7 7 7 7 8 8 9 10 10 10 11 12 12 12 12
9 9 9 8 8 8 7 7 6 6 5 4 4 3 3 3 3 3 3 3 4 4 4 3 3 4 5 5 6 7 7 7 7 8 8 9 10 10 11 11 11 12 12 12
9 9 8 8 7 7 7 6 5 5 4 4 3 3 3 3 3 4 4 4 4 4 4 4 4 4 5 5 6 7 7 7 7 8 8 9 10 10 11 11 12 12 12 12
8 8 8 7 7 6 6 5 5 4 4 3 3 3 3 4 4 4 4 5 4 4 4 4 4 5 5 6 6 7 7 7 7 8 9 9 10 11 11 11 12 12 12 12
8 7 7 6 6 5 5 4 4 3 3 3 3 3 4 4 4 5 5 5 5 5 4 5 5 5 6 6 6 7 7 7 8 8 9 10 10 11 11 12 12 12 12 12
7 6 6 5 5 4 4 3 3 3 3 3 3 4 4 4 5 5 5 5 5 5 5 5 6 6 6 7 7 7 7 7 8 9 9 10 11 11 11 12 12 12 12 12
6 6 5 4 4 3 3 2 2 2 2 3 3 4 4 5 5 6 6 6 6 6 6 6 7 7 7 7 7 7 7 8 8 9 10 10 11 11 12 12 12 12 12 12
5 5 4 3 3 3 2 2 2 2 2 3 3 4 5 5 5 6 6 6 7 7 7 7 7 7 7 7 7 7 8 8 8 9 10 11 11 11 12 12 12 12 12 12

GEFSNGP_850_meantemp_030.txt.gz
Temperature
17 18 18 18 17 15 15 14 14 13 12 11 10 10 10 10 10 10 10 10 10 10 10 10 10 11 11 11 11 12 12 13 14 14 14 14 14 13 13 12 12 12 11 11
18 19 18 16 15 14 13 13 13 12 11 10 10 10 10 9 9 9 9 9 9 9 10 10 10 10 10 10 11 11 11 11 12 13 13 13 13 13 13 12 12 11 11 11
16 17 18 15 13 13 12 11 11 11 10 10 10 10 9 8 8 9 9 9 9 9 9 9 10 10 10 10 10 10 10 10 11 11 11 12 12 12 12 12 12 11 11 11
14 17 17 13 13 13 12 11 10 10 10 10 9 8 8 9 9 9 9 9 9 9 10 10 10 10 9 9 9 9 9 10 10 10 10 11 11 11 12 12 11 11 11 11
13 15 14 13 13 12 11 11 10 9 9 9 9 8 9 10 10 9 9 9 9 9 9 9 9 9 9 9 9 9 9 9 9 9 9 10 10 11 11 11 11 11 11 11
13 15 15 12 12 12 12 11 9 9 8 8 8 6 7 9 9 9 9 9 9 9 9 9 9 9 9 9 9 9 9 9 9 9 8 9 9 10 10 11 11 11 11 11
13 14 12 10 10 11 11 10 10 9 9 8 7 7 8 8 9 9 9 9 9 9 9 9 9 9 8 8 9 9 9 8 8 8 8 8 9 9 10 10 11 11 11 11
12 13 12 10 10 10 10 11 10 10 9 9 8 8 8 8 8 8 8 8 8 8 8 8 8 8 8 8 8 8 8 8 8 8 8 8 8 8 9 10 10 10 10 10
11 10 10 10 10 11 10 10 10 9 9 9 8 8 8 8 8 8 8 8 8 7 7 7 7 7 7 7 7 8 8 8 8 8 8 7 7 8 8 9 10 10 10 10
9 9 10 11 11 11 10 10 9 9 9 9 8 8 8 8 8 8 8 7 7 7 7 7 7 7 6 6 7 7 7 7 7 7 7 7 7 7 8 8 9 10 10 10
9 9 10 11 11 10 10 9 9 9 9 8 8 8 8 7 7 7 7 7 7 6 6 6 6 6 6 6 6 6 6 6 7 7 7 7 7 7 7 8 9 10 10 11
9 10 9 10 10 9 9 9 9 8 8 8 8 8 7 7 7 7 6 6 6 6 6 6 5 5 5 5 5 5 5 6 6 7 7 7 7 7 7 8 9 10 11 11
10 10 10 9 9 9 9 9 8 8 8 8 7 7 7 7 6 6 6 6 6 5 5 5 5 5 5 5 5 5 5 5 6 6 6 6 6 6 7 8 8 9 10 11
10 10 9 9 9 9 9 8 8 8 8 7 7 7 6 6 6 5 5 5 5 5 4 4 4 4 4 4 4 4 4 5 5 6 6 6 6 6 6 7 8 9 9 10
10 9 9 9 9 8 8 8 7 7 7 6 6 6 5 5 5 4 4 4 4 4 4 4 4 4 4 4 4 4 4 4 5 5 6 6 6 6 6 7 8 9 9 9
9 9 9 8 8 8 8 7 7 6 6 6 5 5 4 4 4 4 4 4 4 3 3 3 3 4 4 4 3 3 4 4 5 5 6 6 6 6 6 7 8 9 9 9
8 8 8 8 7 7 7 6 6 5 5 5 4 4 3 3 3 3 3 3 3 3 3 3 4 4 4 4 3 3 4 4 5 5 6 6 6 6 7 8 8 9 9 10
8 8 8 8 7 6 6 6 5 5 4 4 3 3 3 3 3 3 3 3 3 3 4 4 4 4 4 3 3 3 4 4 5 5 6 6 6 6 7 8 9 9 10 10
8 8 8 7 6 6 5 5 4 4 3 3 2 2 2 3 3 3 3 3 3 4 4 4 4 4 4 3 3 4 4 4 5 6 6 6 6 7 7 8 9 9 10 10
8 7 7 6 5 5 4 4 3 3 3 3 2 2 2 3 3 3 3 4 4 4 4 4 4 4 4 4 4 4 4 5 5 6 6 6 6 7 8 9 9 9 10 10
7 6 6 5 5 4 4 3 3 3 3 3 3 2 2 3 3 3 4 4 4 4 4 4 4 4 4 4 4 4 5 5 6 6 6 6 7 7 8 9 9 10 10 11
6 6 5 4 4 4 4 3 3 3 4 3 3 3 3 3 4 4 4 4 4 4 4 4 4 4 4 4 4 5 5 6 6 6 6 7 7 8 8 9 10 10 11 11
6 5 4 4 4 3 4 4 4 4 3 3 3 3 3 3 4 4 4 5 5 5 4 4 4 4 4 5 5 5 6 6 6 6 7 7 8 8 9 9 10 11 11 11
5 5 4 4 4 3 3 4 4 4 3 3 3 3 3 4 4 4 5 5 5 5 5 5 5 5 5 5 5 6 6 6 7 7 7 7 8 9 9 10 11 11 12 12
5 4 4 4 3 3 3 4 4 4 3 3 3 4 4 4 4 4 5 5 5 5 6 6 5 6 6 6 6 6 7 7 7 7 8 8 9 9 10 11 11 12 12 12
4 4 4 4 3 3 3 3 3 3 3 3 3 4 4 4 4 5 5 6 6 6 6 6 6 6 6 7 7 7 7 7 7 8 8 9 9 10 10 11 11 12 12 12
4 4 4 4 4 4 4 4 3 3 3 3 3 4 4 4 4 5 5 6 6 6 6 7 7 7 7 7 7 7 7 8 8 8 9 9 10 10 11 11 11 12 12 12

GEFSNGP_850_meantemp_036.txt.gz
Temperature
25 25 25 23 23 22 22 21 21 20 19 16 15 14 13 12 11 11 10 10 10 10 10 10 10 9 9 9 9 9 9 9 9 9 9 9 9 10 10 11 11 12 12 12
24 24 23 22 21 20 19 19 19 18 17 15 14 13 12 11 11 11 11 11 11 11 11 10 10 10 10 9 9 9 9 9 9 9 9 9 9 9 10 10 10 11 11 11
24 24 23 21 18 18 18 18 17 17 15 15 14 13 12 12 12 12 12 12 11 11 11 10 10 10 10 9 9 9 9 9 9 9 9 9 9 9 9 9 10 10 11 11
24 23 21 17 18 17 17 17 16 15 15 15 14 13 13 13 13 12 11 11 11 10 10 10 10 10 9 9 9 9 9 9 9 9 9 9 9 9 9 9 9 10 10 10
23 23 20 16 17 16 16 16 16 15 15 15 14 13 14 14 12 11 11 10 10 10 10 9 9 9 9 9 9 9 9 8 8 8 8 8 8 8 8 8 8 9 9 10
21 20 20 16 16 16 16 16 15 15 14 14 13 14 14 12 11 11 10 10 10 9 9 9 9 9 8 8 8 8 8 8 8 8 8 8 8 8 8 8 8 8 9 9
20 20 18 16 16 16 15 15 14 13 13 13 13 12 11 11 11 10 10 9 9 9 9 9 8 8 8 8 8 8 8 8 7 7 7 7 7 7 7 8 8 8 8 9
19 18 17 15 16 15 14 13 13 13 12 12 11 11 11 10 10 10 10 9 9 9 9 8 8 8 8 8 7 7 7 7 7 7 7 7 7 7 7 7 7 8 8 8
18 18 16 15 14 14 13 13 12 12 11 11 11 11 10 10 10 10 9 9 9 8 8 8 8 8 7 7 7 7 7 6 6 6 6 6 7 7 7 8 8 8 8 8
17 17 16 15 14 14 13 12 11 11 11 10 10 10 10 10 9 9 9 9 8 8 8 8 7 7 7 7 6 6 6 6 6 6 6 6 6 7 8 8 8 8 7 7
17 16 15 15 14 13 12 11 11 11 10 10 10 10 10 9 9 9 8 8 8 7 7 7 7 6 6 6 6 6 6 6 6 6 6 6 6 7 7 7 8 7 7 7
16 15 14 14 13 12 11 11 10 10 10 10 10 9 9 9 8 8 8 7 7 7 6 6 6 5 5 5 5 5 5 5 5 5 5 6 6 7 7 7 7 7 7 7
14 13 13 12 12 11 11 10 10 10 10 10 9 9 9 8 8 7 7 7 6 5 5 5 4 4 4 4 4 4 4 5 5 5 5 5 6 6 7 7 7 7 7 7
13 12 12 11 11 10 10 10 10 10 9 9 9 8 8 7 7 7 6 5 5 4 4 4 4 4 4 4 4 4 4 4 4 4 4 5 5 6 6 7 7 6 6 7
12 11 11 11 10 10 10 10 9 9 9 8 8 8 7 7 6 5 5 4 4 3 3 4 4 4 4 4 4 4 4 4 4 4 4 5 5 6 6 6 6 6 6 7
11 11 11 10 10 10 9 9 9 8 8 8 7 7 6 6 5 4 4 3 3 3 3 3 4 4 4 4 4 4 4 4 4 4 5 5 5 6 6 6 6 6 6 7
11 11 10 10 9 9 9 8 8 8 7 7 6 6 5 5 4 3 3 3 3 3 4 4 4 4 4 4 4 4 4 4 4 4 5 5 6 6 6 6 6 6 6 7
10 10 9 9 9 8 8 8 7 7 6 6 5 5 4 4 3 3 3 3 3 4 4 4 4 4 4 4 4 4 4 4 4 5 5 5 6 6 6 6 6 6 7 7
10 9 9 8 8 7 7 7 6 6 6 5 5 4 4 3 3 3 3 3 4 4 4 4 4 4 4 4 4 4 4 4 5 5 5 6 6 6 6 6 6 7 7 7
9 9 8 8 7 7 6 6 6 5 5 5 4 4 3 3 3 3 3 4 4 4 4 4 4 4 4 4 4 5 5 5 5 6 6 6 6 6 6 6 7 7 8 8
9 8 8 7 6 6 6 5 5 5 5 4 4 3 3 3 3 3 3 4 4 4 4 4 4 4 4 4 5 5 5 5 6 6 6 6 6 6 6 7 7 8 8 9
8 7 7 6 6 6 5 5 5 5 4 4 3 3 3 3 3 3 4 4 4 5 5 5 5 5 5 5 5 5 6 6 6 6 6 7 7 7 7 8 8 9 9 9
7 6 6 6 5 5 5 5 5 4 4 3 3 3 3 3 3 3 4 4 5 5 5 5 5 5 5 6 6 6 6 6 6 7 7 7 7 7 8 8 9 9 9 10
6 6 5 5 5 5 5 5 4 4 3 3 3 3 3 3 3 4 4 4 5 5 5 6 6 6 6 6 6 7 7 7 7 7 7 8 8 8 9 9 9 9 10 10
6 5 5 5 5 5 5 4 4 4 3 3 3 3 3 3 3 4 4 5 5 6 6 6 6 6 7 7 7 7 7 7 7 8 8 8 9 9 9 10 10 10 10 11
6 5 5 5 5 5 5 4 4 3 3 3 3 3 3 3 4 4 4 5 5 6 6 6 7 7 7 7 7 7 7 7 8 8 8 9 9 10 10 10 11 11 11 11
6 6 6 5 5 5 5 4 4 3 3 3 3 3 3 4 4 4 5 5 5 6 6 6 7 7 7 7 7 8 8 8 8 9 9 9 10 10 11 11 11 12 12 12

GEFSNGP_850_meantemp_042.txt.gz
Temperature
27 28 29 28 27 27 25 24 23 23 22 21 20 19 19 18 17 17 17 16 16 15 14 14 13 13 12 12 12 11 11 11 10 10 10 10 10 10 10 10 10 10 10 10
26 28 28 27 26 25 24 23 23 22 22 21 20 19 18 18 17 17 16 16 15 14 14 13 13 12 12 12 11 11 11 11 10 10 10 10 10 10 10 10 9 9 9 10
25 27 27 24 23 23 23 23 22 21 21 20 19 18 18 17 17 16 16 15 14 14 13 13 12 12 12 11 11 11 11 10 10 10 10 10 10 9 9 9 9 9 9 9
25 26 24 22 23 23 22 22 22 21 20 19 18 18 17 17 17 15 15 14 14 13 13 12 12 12 11 11 11 11 10 10 10 10 10 10 9 9 9 9 9 9 9 9
25 25 24 22 22 21 20 20 20 19 19 18 17 17 17 17 15 15 14 14 13 13 12 12 12 11 11 11 10 10 10 10 10 9 9 9 9 9 8 8 8 8 8 9
24 23 23 21 22 21 21 20 18 18 18 17 16 16 16 15 14 14 13 13 13 12 12 12 11 11 11 10 10 10 10 9 9 9 9 9 8 8 8 8 8 8 8 8
24 23 23 21 21 21 19 18 18 17 17 16 16 15 15 14 14 13 13 13 12 12 12 11 11 10 10 10 9 9 9 9 9 8 8 8 8 8 8 8 8 8 8 8
22 22 21 21 20 19 18 18 17 16 16 15 15 15 14 14 13 13 13 12 12 11 11 11 10 10 9 9 9 8 8 8 8 8 8 8 8 8 8 8 8 8 8 8
22 21 21 20 20 19 18 17 16 16 15 15 14 14 14 13 13 13 12 12 11 11 10 10 9 9 8 7 7 7 7 7 7 7 7 7 7 7 7 7 7 8 8 8
22 22 21 20 19 18 17 16 15 15 15 14 14 14 13 13 13 12 11 11 10 9 9 8 7 7 6 6 6 6 6 6 6 6 6 6 7 7 7 7 7 8 8 8
21 21 19 19 17 16 16 15 15 15 14 14 14 13 13 12 12 11 10 10 9 8 7 6 6 5 5 5 5 5 5 5 5 5 6 6 6 6 7 7 7 7 8 8
19 19 18 17 16 16 15 15 14 14 14 13 13 13 12 11 11 10 9 8 7 6 5 5 5 4 4 4 4 4 4 4 5 5 5 5 6 6 7 7 7 7 7 8
18 17 17 16 16 15 15 14 14 14 13 13 13 12 11 10 9 8 7 6 6 5 4 4 4 4 4 4 4 4 4 4 5 5 5 5 5 6 6 7 7 7 7 7
17 17 16 16 15 15 14 14 13 13 13 12 12 11 10 9 8 7 6 5 5 4 4 4 4 4 4 4 4 4 4 5 5 5 5 5 5 6 6 6 7 7 7 7
17 16 15 15 14 14 13 13 13 12 12 11 11 10 8 7 7 6 5 5 4 4 4 4 4 4 4 4 4 4 5 5 5 5 5 5 6 6 6 6 6 7 7 7
16 15 15 14 14 13 13 12 12 12 11 10 9 8 7 7 6 5 4 4 4 4 4 4 4 4 4 4 5 5 5 5 5 5 5 5 6 6 6 6 6 7 7 7
15 15 14 14 13 13 12 12 11 11 10 9 8 7 7 6 5 4 4 4 4 4 4 4 4 5 5 5 5 5 5 5 5 5 6 6 6 6 6 6 7 7 7 7
15 14 14 13 13 12 11 11 10 10 9 8 8 7 6 5 4 4 4 4 4 4 5 5 5 5 5 5 5 5 5 6 6 6 6 6 6 6 6 6 7 7 7 7
15 14 13 13 12 11 11 10 10 9 9 8 7 6 5 5 4 4 4 4 4 4 5 5 5 5 6 6 6 6 6 6 6 6 6 6 6 7 6 7 7 7 7 7
14 13 13 12 11 10 10 9 9 9 8 7 6 6 5 4 4 4 4 4 4 4 5 5 6 6 6 6 6 6 7 7 7 7 7 7 7 7 7 7 7 7 7 7
13 12 12 11 10 10 9 9 9 8 8 7 6 5 5 4 4 4 4 4 5 5 5 6 6 6 6 6 7 7 7 7 7 7 7 7 7 7 7 7 7 7 7 7
12 11 11 10 10 9 9 9 9 8 7 6 6 5 5 4 4 4 4 4 5 5 6 6 6 7 7 7 7 7 7 7 7 7 7 7 7 7 7 7 7 7 8 8
11 11 10 10 9 9 9 9 8 8 7 6 6 5 5 4 4 4 4 5 5 5 6 6 7 7 7 8 7 7 7 7 7 7 7 7 7 7 8 8 8 8 9 9
11 10 10 10 9 9 9 9 8 8 7 6 6 5 5 4 4 4 4 5 5 6 6 7 7 8 8 8 8 8 8 8 8 8 8 8 8 8 8 9 9 9 10 10
11 10 10 9 9 9 9 9 8 8 7 6 6 5 5 4 4 4 5 5 5 6 6 7 7 8 8 8 8 8 8 9 9 9 9 9 9 9 9 9 10 10 10 11
11 11 10 10 10 9 9 8 8 7 7 6 5 5 4 4 5 5 5 5 6 6 6 7 7 8 8 8 9 9 9 9 9 9 9 9 10 10 10 10 11 11 11 12
11 11 11 10 10 9 8 8 8 7 7 6 5 5 4 4 4 5 5 5 6 6 6 7 7 8 8 8 9 9 9 10 10 10 10 10 10 11 11 11 11 12 12 12

GEFSNGP_850_meantemp_048.txt.gz
Temperature
20 21 22 21 21 20 19 18 17 17 16 15 15 15 15 15 15 15 15 14 14 14 14 13 13 13 13 12 12 12 12 11 11 11 11 10 10 10 10 10 10 9 9 9
19 21 21 20 20 20 19 18 18 17 15 15 15 15 15 15 15 14 14 14 14 14 13 13 13 12 12 12 12 12 11 11 11 11 10 10 10 10 10 10 9 9 9 9
18 20 20 17 18 18 18 17 16 15 15 14 14 14 15 15 15 14 14 14 13 13 13 13 12 12 12 12 11 11 11 11 11 10 10 10 10 10 9 9 9 9 9 9
18 18 19 18 19 19 17 16 15 15 15 14 14 15 15 15 14 14 14 13 13 13 12 12 12 12 11 11 11 11 10 10 10 10 10 9 9 9 9 9 9 9 8 8
17 18 18 18 18 18 17 16 15 15 14 14 14 14 13 14 14 13 13 13 12 12 12 11 11 11 10 10 10 10 9 9 9 9 9 9 9 9 9 8 8 8 8 8
17 19 18 17 19 19 17 15 15 14 13 14 13 10 11 13 13 13 12 12 11 11 10 10 9 9 9 8 8 8 8 8 8 8 8 8 8 8 8 8 8 8 8 8
17 18 17 17 18 17 15 14 15 15 14 14 12 11 13 13 12 12 11 10 10 9 9 8 8 8 7 7 7 7 7 6 6 7 7 7 7 7 7 7 7 7 7 8
16 16 16 17 17 15 14 15 15 14 14 14 13 13 13 12 11 10 10 9 8 8 7 7 7 6 6 6 6 5 5 5 5 6 6 6 6 6 6 6 7 7 7 7
15 15 16 17 16 16 15 15 14 14 14 13 13 12 11 11 10 9 8 8 7 7 6 6 5 5 5 5 5 4 5 5 5 5 5 5 5 5 6 6 6 6 7 7
15 16 16 16 16 15 15 14 14 13 13 12 12 11 10 9 9 8 7 7 6 6 5 5 5 5 4 4 4 4 4 4 4 4 4 5 5 5 5 6 6 6 6 7
15 16 16 16 15 15 15 14 13 13 12 12 11 10 9 9 8 7 7 6 6 5 5 5 5 4 4 4 4 4 4 4 4 4 4 4 5 5 5 5 6 6 6 6
14 15 14 15 15 15 14 13 13 12 12 11 10 9 9 8 7 7 6 6 5 5 4 4 4 4 5 4 4 4 4 4 4 4 4 4 5 5 5 5 5 6 6 6
17 16 16 15 15 14 13 13 12 11 11 10 9 9 8 7 7 6 6 5 5 4 4 5 4 5 5 5 5 4 4 4 4 4 4 4 5 5 5 5 5 6 6 6
17 16 15 15 14 14 13 12 12 11 10 9 9 8 7 7 6 6 5 5 4 5 5 5 5 5 5 5 5 5 5 5 4 5 5 5 5 5 5 5 6 6 6 6
16 16 15 14 14 13 12 12 11 10 9 9 8 8 7 6 6 5 5 5 5 5 5 5 5 5 5 5 5 5 5 5 5 5 5 5 5 5 5 5 6 6 6 6
16 15 15 14 13 12 12 11 10 9 9 8 8 7 7 6 5 5 5 5 5 5 5 5 5 5 5 6 5 5 5 5 5 5 5 5 5 5 5 6 6 6 6 6
16 15 14 13 13 12 11 10 9 9 9 8 7 7 6 6 5 5 5 5 5 5 5 5 5 6 6 6 6 6 6 6 6 6 6 6 6 6 6 6 6 6 6 6
16 15 14 13 12 11 11 10 9 9 8 8 7 7 6 5 5 5 5 5 5 6 6 5 6 6 6 6 6 6 6 6 6 6 6 6 6 6 6 6 6 6 6 6
15 14 13 13 12 11 10 9 9 9 8 8 7 7 6 6 5 5 5 5 5 5 5 6 6 6 6 6 6 6 6 6 6 6 6 6 6 6 6 6 6 7 7 7
15 14 13 12 12 11 10 9 9 9 8 8 7 7 6 6 5 5 5 5 5 5 5 6 6 6 6 7 6 6 6 6 6 6 6 6 6 6 7 7 7 7 7 7
14 14 13 12 11 10 10 9 9 8 8 8 7 6 6 6 5 5 5 5 5 5 6 6 6 7 7 7 7 7 7 7 7 6 6 7 7 7 7 7 7 7 7 7
14 13 13 12 11 10 10 9 9 8 8 7 7 6 6 6 6 5 5 5 5 6 6 6 7 7 7 8 8 7 7 7 7 7 7 7 7 7 7 7 7 7 8 8
14 13 12 12 11 10 10 9 9 8 8 7 7 6 6 5 5 5 5 5 6 6 6 7 7 8 8 8 8 8 8 7 7 7 7 7 7 7 7 7 7 8 8 8
13 13 12 12 11 10 10 9 9 8 8 7 6 6 6 5 6 5 5 6 6 7 7 7 7 8 8 8 8 8 8 8 8 8 8 8 8 8 8 8 8 8 9 9
13 13 12 12 11 10 10 9 9 8 8 7 7 6 6 5 5 5 6 6 7 7 7 8 8 8 9 9 9 8 8 8 8 8 8 8 8 8 9 9 9 9 9 10
13 13 12 12 11 10 10 9 9 8 7 7 6 6 6 6 6 6 6 6 7 7 7 8 8 9 9 9 9 9 9 9 9 9 9 9 9 9 9 9 9 10 10 10
13 13 12 11 11 10 10 9 8 8 7 7 6 6 6 6 6 6 6 6 7 7 7 8 8 9 9 9 9 9 9 9 9 9 9 9 10 10 10 10 10 10 11 11

GEFSNGP_850_meantemp_054.txt.gz
Temperature
18 18 19 18 18 18 17 17 15 16 15 14 13 13 14 14 14 14 14 13 13 13 12 12 12 11 11 11 11 11 11 11 11 11 11 11 11 11 10 10 10 10 10 9
18 18 18 18 18 18 17 17 16 15 14 14 14 14 14 14 14 13 13 12 12 12 11 11 10 10 10 10 10 9 9 9 10 10 10 10 10 10 10 10 10 10 9 9
17 18 17 17 17 17 17 16 15 14 13 13 12 12 13 13 13 12 12 11 11 10 10 9 9 9 8 8 8 8 8 8 8 8 8 9 9 9 9 9 9 9 9 9
15 17 18 17 17 17 16 15 14 14 13 13 13 13 13 13 12 12 11 10 9 9 8 8 8 7 7 7 7 7 7 7 7 6 7 7 7 8 8 8 9 9 9 9
15 17 17 17 17 17 16 14 14 13 12 13 13 11 12 13 11 10 10 9 8 8 8 7 7 6 6 6 6 5 5 5 5 5 5 5 6 6 7 7 8 8 8 8
15 17 17 17 17 17 15 14 14 13 12 12 11 8 9 11 10 10 9 8 8 7 7 6 6 6 5 5 5 5 5 5 5 5 5 5 5 5 6 6 6 7 7 7
15 16 15 16 16 16 15 14 14 14 13 12 10 10 11 10 9 9 8 7 7 6 6 6 5 5 5 5 5 5 4 4 4 4 4 4 4 5 5 5 6 6 6 7
13 15 16 16 15 14 14 15 14 14 13 12 11 11 10 9 9 8 7 7 6 6 5 5 5 5 5 5 5 4 4 4 4 4 4 4 4 4 4 5 5 5 6 6
14 15 16 16 16 16 16 15 14 13 12 11 11 10 9 8 8 7 7 6 6 5 5 5 5 5 5 5 5 4 4 4 4 4 4 4 4 4 4 4 4 5 5 6
13 14 15 16 16 16 15 14 13 12 12 11 10 9 8 8 7 7 6 6 5 5 5 5 5 5 5 5 4 4 4 4 4 4 4 4 4 4 4 4 4 5 5 5
14 14 15 16 16 15 14 14 13 12 11 10 9 9 8 7 7 6 6 6 5 5 5 5 5 5 5 5 5 4 4 4 4 4 4 4 4 4 4 4 4 5 5 5
14 16 14 17 17 15 14 13 12 11 11 10 9 8 8 7 7 6 6 5 5 5 5 5 5 5 5 5 5 4 4 4 4 4 4 4 4 4 4 4 5 5 5 5
19 19 18 17 16 14 14 13 12 11 10 9 9 8 7 7 7 6 6 5 5 5 5 5 5 5 5 5 5 5 5 5 5 5 5 4 4 4 5 5 5 5 5 5
19 18 17 16 15 14 13 12 11 11 10 9 8 8 7 7 7 6 6 5 5 5 5 5 5 5 5 5 5 5 5 5 5 5 5 5 5 5 5 5 5 5 5 5
18 17 17 16 15 14 13 12 11 10 9 9 8 8 7 7 6 6 6 6 6 5 5 5 5 5 5 5 5 5 5 5 5 5 5 5 5 5 5 5 5 5 5 5
18 17 16 15 14 13 12 12 11 10 9 9 8 8 7 7 6 6 6 6 5 5 5 5 5 5 5 5 6 6 5 5 5 5 5 5 5 5 5 5 5 5 5 5
18 17 16 15 14 13 12 11 10 9 9 9 8 7 7 7 7 7 7 6 6 6 5 5 5 6 6 6 6 6 6 6 6 6 5 5 5 5 5 5 5 5 6 6
19 18 17 16 14 13 12 11 10 9 9 8 8 7 7 7 6 6 6 6 6 6 6 6 6 6 6 6 6 6 6 6 6 6 6 6 6 6 6 6 6 6 6 6
18 17 16 15 14 13 12 11 10 9 9 8 8 7 7 7 6 6 6 6 6 6 6 6 6 7 7 6 6 6 6 6 6 6 6 6 6 6 6 6 6 6 6 6
17 17 16 15 14 13 12 11 10 9 9 8 8 8 7 7 7 7 7 6 6 6 6 6 6 7 7 7 7 7 6 6 6 6 6 6 6 6 6 6 6 6 6 6
17 16 15 14 13 13 12 11 10 9 9 8 8 7 7 7 7 7 7 6 7 6 7 7 7 7 7 7 7 7 7 7 6 6 6 6 6 6 6 7 7 7 7 7
17 16 15 14 13 12 12 11 10 9 9 8 8 7 7 7 7 7 7 6 6 7 7 7 7 7 7 7 7 7 7 7 7 7 7 7 7 7 7 7 7 7 7 8
17 16 15 14 13 12 12 11 10 9 9 8 8 7 7 7 7 7 7 7 7 7 7 7 7 7 8 8 7 7 7 7 7 7 7 7 7 7 7 8 8 8 8 8
16 15 14 14 13 12 12 11 10 9 9 8 8 7 7 7 7 7 6 6 7 7 8 8 8 8 8 8 8 7 7 7 7 7 7 7 7 8 8 8 8 8 9 9
16 15 14 14 13 13 12 11 10 9 9 8 8 7 7 7 6 7 6 7 7 7 8 8 8 8 8 8 8 8 8 8 8 8 8 8 8 8 8 8 9 9 9 9
15 15 14 14 13 13 12 11 10 9 9 8 8 7 7 7 6 6 6 7 7 7 8 8 8 8 8 8 8 8 8 8 8 8 8 8 8 8 9 9 9 9 9 10
15 14 14 13 13 13 12 11 10 9 9 8 7 7 7 7 6 6 6 6 7 7 7 8 8 8 8 8 8 8 8 8 9 9 9 9 9 9 9 9 10 10 10 10

GEFSNGP_850_meantemp_060.txt.gz
Temperature
26 26 25 25 25 24 24 24 24 23 23 23 22 21 20 19 18 17 16 16 15 14 13 12 11 11 10 10 9 9 9 8 8 8 8 8 8 8 8 8 9 9 9 9
25 25 25 24 24 24 24 24 23 23 23 23 22 20 19 18 17 16 16 15 14 13 12 11 10 10 9 9 8 8 8 7 7 7 7 7 7 7 7 7 8 8 8 8
26 25 24 24 24 24 24 24 23 23 22 22 21 20 18 17 16 15 14 13 13 12 11 10 10 9 9 8 8 7 7 7 7 7 6 6 6 6 6 6 7 7 7 7
25 24 23 24 25 24 23 23 23 23 22 22 20 19 17 17 15 14 13 12 12 11 10 10 9 9 8 8 7 7 7 6 6 6 6 6 6 6 6 6 6 6 6 7
25 25 25 24 23 23 23 23 23 22 22 20 19 18 19 17 15 13 12 11 11 10 10 9 8 8 7 7 7 6 6 6 6 6 5 5 5 5 5 5 5 6 6 6
25 23 23 24 24 22 22 22 22 21 20 19 19 19 19 16 14 13 12 11 10 9 9 8 8 7 7 6 6 6 6 5 5 5 5 5 5 5 5 5 5 5 5 6
24 24 25 24 23 22 22 22 21 20 19 18 18 17 15 14 13 12 11 10 10 9 8 8 7 7 6 6 6 6 5 5 5 5 5 5 5 5 5 5 5 5 5 5
24 23 24 23 23 23 22 21 20 19 18 17 16 15 15 13 12 11 11 10 9 8 8 7 7 6 6 6 6 5 5 5 5 5 5 5 5 5 5 5 5 5 5 5
25 24 23 23 23 22 20 20 19 18 17 16 15 15 14 13 12 11 10 9 9 8 7 7 6 6 6 6 5 5 5 5 5 5 5 5 5 5 5 5 5 5 5 5
23 24 23 22 21 20 19 19 18 17 16 15 15 14 13 12 11 10 10 9 8 7 7 7 6 6 6 5 5 5 5 5 5 5 5 5 5 5 5 5 5 5 5 5
23 24 23 22 21 20 19 18 17 16 15 14 14 13 12 11 11 10 9 8 8 7 7 6 6 6 6 5 5 5 5 5 5 5 5 5 5 5 5 5 5 5 5 5
24 24 23 23 21 19 18 17 17 16 15 14 13 12 12 11 10 9 9 8 8 7 7 6 6 6 6 5 5 5 5 5 5 6 6 6 6 6 6 5 5 5 5 5
23 23 23 21 20 19 18 17 16 15 14 13 13 12 11 10 10 9 8 8 7 7 6 6 6 6 5 5 5 5 5 5 6 6 6 6 6 6 6 6 6 5 5 5
21 20 21 20 20 18 17 16 16 15 14 13 12 12 11 10 10 9 8 8 7 7 6 6 6 6 6 6 6 6 6 6 6 6 6 6 6 6 6 6 6 5 5 5
20 20 20 20 19 18 16 16 15 15 14 13 12 12 11 10 9 8 8 7 7 7 6 6 6 6 6 6 6 6 6 6 6 6 7 7 6 6 6 6 6 6 6 5
20 19 19 19 18 17 16 16 16 15 14 13 12 11 10 9 9 8 8 7 7 7 6 6 6 6 6 6 6 6 6 6 6 7 7 7 7 7 6 6 6 6 6 6
20 19 19 19 18 17 17 16 15 15 14 13 12 11 10 9 9 8 8 7 7 6 6 6 6 6 6 6 6 6 7 7 7 7 7 7 7 7 7 7 6 6 6 6
20 20 19 19 19 18 16 16 15 14 13 12 11 11 10 9 9 8 7 7 7 7 6 6 6 6 6 6 6 6 7 7 7 7 7 7 7 7 7 7 7 7 6 6
19 19 19 18 17 17 16 15 14 13 12 11 11 10 10 9 8 8 7 7 7 7 7 7 7 7 7 7 6 7 7 7 7 7 8 7 8 7 7 7 7 7 7 7
17 18 17 17 16 16 15 14 13 13 12 11 10 10 10 9 8 8 7 7 7 6 7 7 7 7 7 7 7 7 7 7 7 8 8 8 8 8 8 7 7 7 7 7
17 17 16 16 16 15 15 14 13 12 12 11 10 10 9 9 8 8 7 7 7 7 7 7 7 7 7 7 7 7 7 8 8 8 8 8 8 8 8 8 8 8 8 8
16 16 16 15 15 15 14 14 13 12 11 11 10 10 9 9 8 8 7 7 6 7 7 7 7 7 7 7 7 7 7 8 8 8 8 8 9 9 9 9 9 9 9 9
14 15 14 15 14 14 14 13 13 12 11 11 10 10 9 9 8 8 7 7 7 7 7 7 7 7 7 7 7 7 7 8 8 8 8 9 9 9 9 9 9 9 9 9
13 14 14 14 14 14 13 13 13 12 11 11 10 10 9 9 8 8 7 7 7 7 7 7 7 7 7 7 7 7 7 8 8 8 9 9 9 9 9 10 10 10 10 10
13 13 13 13 13 13 13 13 12 12 11 11 10 10 9 8 8 8 7 7 7 7 7 7 7 7 7 7 7 7 8 8 8 8 8 9 9 9 10 10 10 10 10 10
13 13 13 13 13 13 13 13 12 12 12 11 10 10 9 8 8 7 7 6 6 6 6 7 7 7 7 7 7 7 8 8 8 8 8 9 9 9 9 10 10 10 10 10
13 13 13 13 13 13 13 12 12 12 11 11 10 10 9 8 8 7 7 6 6 6 6 6 7 7 7 7 7 7 7 8 8 8 8 9 9 9 10 10 10 10 10 10